FW0984 Weather Reports


Display with metric or nautical units.
time (UTC)temp
F
wind
direction
speed
MPH
gust
MPH
rain 1hr
in
rain 24hr
in
rain mn
in
humidity
%
barometer
mb
20260502163056 54 21 2.0 7.0 0.00 0.00 0.00 46 1020.2
20260502161609 54 334 1.0 3.0 0.00 0.00 0.00 53 1020.3
20260502151541 51 20 1.0 6.0 0.00 0.00 0.00 48 1020.6
20260502123005 38 71 0.0 0.0 0.00 0.02 0.00 95 1020.4
20260502121504 38 46 0.0 0.0 0.00 0.02 0.00 95 1020.4
20260502114600 36 65 0.0 0.0 0.00 0.02 0.00 94 1020.0
20260502113057 36 56 0.0 0.0 0.00 0.02 0.00 94 1019.9
20260502111605 36 56 0.0 0.0 0.00 0.02 0.00 94 1019.5
20260502110056 35 56 0.0 0.0 0.00 0.02 0.00 94 1019.8
20260502104553 35 56 0.0 0.0 0.00 0.02 0.00 94 1019.6
20260502103052 35 56 0.0 0.0 0.00 0.02 0.00 93 1019.7
20260502101554 34 56 0.0 0.0 0.00 0.02 0.00 93 1019.5
20260502070035 37 56 0.0 0.0 0.00 0.02 0.00 92 1019.2
20260502064534 37 56 0.0 0.0 0.00 0.02 0.00 92 1019.4
20260502063031 38 56 0.0 0.0 0.00 0.02 0.00 92 1019.5
20260502061529 38 56 0.0 0.0 0.00 0.02 0.00 92 1019.8
20260502060028 38 56 0.0 0.0 0.00 0.02 0.00 92 1019.8
20260502054526 38 56 0.0 0.0 0.00 0.02 0.00 92 1019.8
20260502053026 38 56 0.0 0.0 0.00 0.02 0.00 91 1019.8
20260502051529 38 56 0.0 0.0 0.00 0.02 0.00 90 1019.9
20260502050036 38 56 0.0 0.0 0.00 0.02 0.00 90 1019.8
20260502044522 39 56 0.0 0.0 0.00 0.02 0.00 89 1019.9
20260502043019 39 56 0.0 0.0 0.00 0.02 0.00 88 1019.9
20260502041517 40 56 0.0 0.0 0.00 0.02 0.00 87 1019.8
20260502040014 40 56 0.0 0.0 0.00 0.02 0.00 86 1019.7
20260502034514 41 56 0.0 0.0 0.00 0.02 0.02 86 1019.8
20260502033013 41 56 0.0 0.0 0.00 0.02 0.02 86 1019.8
20260502031512 42 56 0.0 0.0 0.00 0.02 0.02 85 1019.8
20260502030011 42 56 0.0 0.0 0.00 0.02 0.02 85 1019.7
20260502024509 43 56 0.0 0.0 0.00 0.02 0.02 84 1019.7
20260502023015 43 56 0.0 0.0 0.00 0.02 0.02 83 1019.5
20260502021508 44 56 0.0 0.0 0.00 0.02 0.02 80 1019.5
20260502020006 44 56 0.0 0.0 0.00 0.02 0.02 79 1019.1
20260502014508 45 56 0.0 0.0 0.00 0.02 0.02 79 1018.7
20260502013003 46 56 0.0 0.0 0.00 0.02 0.02 76 1018.7
20260502011502 46 56 0.0 0.0 0.00 0.02 0.02 71 1018.4
20260502010104 47 56 0.0 0.0 0.00 0.02 0.02 69 1018.3
20260502004558 48 56 0.0 0.0 0.00 0.02 0.02 68 1017.8
20260502003055 49 56 0.0 0.0 0.00 0.02 0.02 64 1017.3
20260502001601 50 38 0.0 0.0 0.00 0.02 0.02 62 1017.1
20260502000056 50 54 0.0 6.0 0.00 0.02 0.02 60 1017.2
20260501234554 51 106 0.0 4.0 0.00 0.02 0.02 59 1017.6
20260501233104 51 258 0.0 2.0 0.00 0.02 0.02 59 1017.4
20260501231602 51 68 1.0 9.0 0.00 0.02 0.02 57 1017.2
20260501230050 51 92 0.0 5.0 0.00 0.02 0.02 59 1017.2
20260501224549 52 355 0.0 6.0 0.00 0.02 0.02 57 1017.1
20260501223111 52 47 1.0 5.0 0.00 0.02 0.02 59 1017.2
20260501221549 53 77 0.0 5.0 0.00 0.02 0.02 56 1017.3
20260501220046 53 164 2.0 9.0 0.00 0.02 0.02 53 1017.2
20260501214545 54 67 3.0 13.0 0.00 0.02 0.02 56 1017.0
20260501213043 53 187 1.0 7.0 0.00 0.02 0.02 58 1017.1
20260501211543 53 9 3.0 9.0 0.00 0.02 0.02 56 1016.9
20260501210042 54 117 2.0 10.0 0.00 0.02 0.02 56 1016.9
20260501204543 54 30 1.0 9.0 0.00 0.02 0.02 61 1016.9
20260501203040 55 129 2.0 10.0 0.00 0.02 0.02 58 1016.9
20260501201538 55 348 0.0 6.0 0.00 0.02 0.02 65 1016.7
20260501200036 54 17 2.0 12.0 0.00 0.02 0.02 61 1016.7
20260501194536 54 344 3.0 11.0 0.00 0.02 0.02 62 1016.6
20260501193036 54 355 2.0 9.0 0.00 0.02 0.02 61 1016.5
20260501191535 55 274 1.0 12.0 0.00 0.02 0.02 61 1016.5
20260501190034 54 349 3.0 13.0 0.00 0.02 0.02 60 1016.5
20260501184534 55 258 2.0 9.0 0.00 0.02 0.02 61 1016.3
20260501183034 55 40 4.0 12.0 0.00 0.02 0.02 61 1016.1
20260501181534 55 29 3.0 6.0 0.00 0.02 0.02 65 1015.9